JCSAT-2B

Last updated on Wed Oct 29 2025 00:02:49 GMT+0000 (Coordinated Universal Time)

1 41471U 16028A 25301.34489231 -.00000155 00000+0 00000+0 0 9999 2 41471 0.0156 240.3937 0000848 327.0519 107.6830 1.00270386 34791
UTC large
Height (km)
Speed (km/s)
/
Latitude / Longitude
Inclination (degrees)
Orbital Period (minutes)
Azimuth
Elevation
Range (km)
Doppler Factor

Next 0 passes for location: London (51.5072 / 0.1276)

Sorry there are no passes over London.